EK9826 YSSY-NZAA

Flight info

Callsign EK9826
Flight time N/A
Altitude 35000
Route KEVIN7/16L EVONN L521 AA
Aircraft B77L/H-SDE1E2E3FGHIJ2J3J4J5M1RWXY/LB1D1

Departure

Time 2026-04-23 03:27
Airport Sydney Kingsford Smith International Airport (YSSY)

Arrival

Time N/A
Airport Auckland International Airport (NZAA)
Time Latitude Longitude Altitude Speed Heading
2026-04-23 03:00 -33.93111 151.16773 34 ft 0 kts 257°
2026-04-23 03:11 -33.93108 151.16788 34 ft 4 kts 257°
2026-04-23 03:11 -33.93103 151.16819 31 ft 4 kts 257°
2026-04-23 03:12 -33.93097 151.16851 32 ft 4 kts 257°
2026-04-23 03:12 -33.93093 151.16873 32 ft 4 kts 257°
2026-04-23 03:12 -33.93087 151.16898 31 ft 4 kts 237°
2026-04-23 03:12 -33.93075 151.16913 31 ft 4 kts 186°
2026-04-23 03:13 -33.93050 151.16910 33 ft 4 kts 166°
2026-04-23 03:13 -33.93041 151.16908 33 ft 0 kts 168°
2026-04-23 03:14 -33.93044 151.16908 33 ft 2 kts 168°
2026-04-23 03:14 -33.93089 151.16920 31 ft 8 kts 168°
2026-04-23 03:15 -33.93147 151.16935 34 ft 8 kts 168°
2026-04-23 03:15 -33.93204 151.16950 34 ft 8 kts 168°
2026-04-23 03:15 -33.93259 151.16975 33 ft 8 kts 146°
2026-04-23 03:15 -33.93303 151.17023 34 ft 8 kts 137°
2026-04-23 03:16 -33.93351 151.17062 34 ft 8 kts 156°
2026-04-23 03:16 -33.93408 151.17080 34 ft 8 kts 166°
2026-04-23 03:16 -33.93522 151.17114 33 ft 8 kts 166°
2026-04-23 03:17 -33.93580 151.17130 33 ft 8 kts 166°
2026-04-23 03:17 -33.93637 151.17144 33 ft 8 kts 173°
2026-04-23 03:17 -33.93696 151.17153 33 ft 8 kts 173°
2026-04-23 03:17 -33.93754 151.17162 33 ft 8 kts 173°
2026-04-23 03:18 -33.93812 151.17175 33 ft 8 kts 167°
2026-04-23 03:18 -33.93869 151.17190 33 ft 8 kts 167°
2026-04-23 03:18 -33.93926 151.17209 33 ft 9 kts 159°
2026-04-23 03:18 -33.93959 151.17268 33 ft 10 kts 87°
2026-04-23 03:19 -33.93935 151.17367 31 ft 15 kts 73°
2026-04-23 03:19 -33.93905 151.17495 32 ft 17 kts 75°
2026-04-23 03:19 -33.93874 151.17633 33 ft 17 kts 74°
2026-04-23 03:19 -33.93840 151.17773 34 ft 17 kts 74°
2026-04-23 03:20 -33.93807 151.17912 34 ft 17 kts 74°
2026-04-23 03:20 -33.93774 151.18050 34 ft 17 kts 74°
2026-04-23 03:20 -33.93747 151.18191 34 ft 17 kts 92°
2026-04-23 03:20 -33.93841 151.18264 34 ft 17 kts 166°
2026-04-23 03:21 -33.93936 151.18206 33 ft 17 kts 248°
2026-04-23 03:21 -33.93974 151.18065 33 ft 17 kts 252°
2026-04-23 03:21 -33.94008 151.17926 32 ft 18 kts 256°
2026-04-23 03:21 -33.94075 151.17823 33 ft 18 kts 177°
2026-04-23 03:22 -33.94194 151.17856 34 ft 18 kts 168°
2026-04-23 03:22 -33.94314 151.17887 34 ft 18 kts 168°
2026-04-23 03:22 -33.94434 151.17919 34 ft 18 kts 168°
2026-04-23 03:22 -33.94553 151.17893 34 ft 18 kts 176°
2026-04-23 03:23 -33.94674 151.17921 34 ft 18 kts 168°
2026-04-23 03:23 -33.94795 151.17952 34 ft 18 kts 167°
2026-04-23 03:23 -33.94916 151.17982 34 ft 18 kts 168°
2026-04-23 03:23 -33.95025 151.18010 35 ft 13 kts 168°
2026-04-23 03:24 -33.95097 151.18042 35 ft 11 kts 134°
2026-04-23 03:24 -33.95095 151.18129 35 ft 11 kts 75°
2026-04-23 03:24 -33.95075 151.18218 35 ft 11 kts 76°
2026-04-23 03:24 -33.95059 151.18309 35 ft 11 kts 78°
2026-04-23 03:25 -33.95044 151.18400 35 ft 11 kts 78°
2026-04-23 03:25 -33.95029 151.18491 34 ft 11 kts 78°
2026-04-23 03:25 -33.95013 151.18582 34 ft 11 kts 77°
2026-04-23 03:25 -33.94997 151.18673 34 ft 11 kts 77°
2026-04-23 03:26 -33.94979 151.18773 30 ft 14 kts 79°
2026-04-23 03:26 -33.95039 151.18847 29 ft 16 kts 168°
2026-04-23 03:26 -33.95330 151.18923 27 ft 79 kts 168°
2026-04-23 03:26 -33.96100 151.19123 32 ft 144 kts 167°
2026-04-23 03:27 -33.97231 151.19420 232 ft 174 kts 168°
2026-04-23 03:27 -33.98423 151.19686 878 ft 173 kts 154°
2026-04-23 03:27 -33.99252 151.20715 1337 ft 182 kts 116°
2026-04-23 03:27 -33.99850 151.22175 1598 ft 207 kts 120°
2026-04-23 03:28 -34.00629 151.23769 1948 ft 231 kts 122°
2026-04-23 03:28 -34.01400 151.25509 2494 ft 239 kts 124°
2026-04-23 03:28 -34.02651 151.26847 3084 ft 245 kts 147°
2026-04-23 03:28 -34.04070 151.27988 3865 ft 251 kts 144°
2026-04-23 03:29 -34.05484 151.29242 4766 ft 253 kts 143°
2026-04-23 03:29 -34.06896 151.30555 5583 ft 258 kts 142°
2026-04-23 03:29 -34.08313 151.31911 6422 ft 261 kts 141°
2026-04-23 03:29 -34.09735 151.33294 7211 ft 265 kts 140°
2026-04-23 03:30 -34.11180 151.34706 8012 ft 268 kts 140°
2026-04-23 03:30 -34.12623 151.36148 8791 ft 268 kts 135°
2026-04-23 03:30 -34.13647 151.38045 9380 ft 277 kts 109°
2026-04-23 03:30 -34.14003 151.40331 10104 ft 279 kts 98°
2026-04-23 03:31 -34.14225 151.42725 10516 ft 298 kts 97°
2026-04-23 03:31 -34.14453 151.45317 10696 ft 323 kts 97°
2026-04-23 03:31 -34.14692 151.48083 10891 ft 347 kts 97°
2026-04-23 03:31 -34.14948 151.51056 11332 ft 361 kts 97°
2026-04-23 03:32 -34.15214 151.54107 11991 ft 369 kts 97°
2026-04-23 03:32 -34.15486 151.57214 12812 ft 372 kts 98°
2026-04-23 03:32 -34.15761 151.60329 13684 ft 374 kts 98°
2026-04-23 03:32 -34.16039 151.63464 14491 ft 377 kts 98°
2026-04-23 03:33 -34.16322 151.66638 15196 ft 381 kts 98°
2026-04-23 03:33 -34.16607 151.69834 15887 ft 386 kts 98°
2026-04-23 03:33 -34.16891 151.73039 16564 ft 390 kts 99°
2026-04-23 03:33 -34.17182 151.76316 17264 ft 394 kts 99°
2026-04-23 03:34 -34.17474 151.79627 17956 ft 399 kts 99°
2026-04-23 03:34 -34.17768 151.82971 18660 ft 403 kts 99°
2026-04-23 03:34 -34.18065 151.86351 19246 ft 407 kts 99°
2026-04-23 03:34 -34.18364 151.89774 19835 ft 411 kts 99°
2026-04-23 03:35 -34.18664 151.93221 20438 ft 415 kts 99°
2026-04-23 03:35 -34.18966 151.96699 21051 ft 418 kts 99°
2026-04-23 03:35 -34.19270 152.00210 21650 ft 422 kts 99°
2026-04-23 03:35 -34.19633 152.03741 22207 ft 423 kts 104°
2026-04-23 03:36 -34.20433 152.07160 22736 ft 424 kts 112°
2026-04-23 03:36 -34.21438 152.10528 23309 ft 428 kts 114°
2026-04-23 03:36 -34.22494 152.13910 23912 ft 431 kts 114°
2026-04-23 03:36 -34.23554 152.17312 24409 ft 434 kts 114°
2026-04-23 03:37 -34.24605 152.20748 24922 ft 437 kts 113°
2026-04-23 03:37 -34.25634 152.24176 25416 ft 440 kts 113°
2026-04-23 03:37 -34.26666 152.27676 25933 ft 443 kts 113°
2026-04-23 03:37 -34.27695 152.31204 26430 ft 447 kts 113°
2026-04-23 03:38 -34.28728 152.34770 26940 ft 450 kts 113°
2026-04-23 03:38 -34.29764 152.38358 27404 ft 454 kts 113°
2026-04-23 03:38 -34.30805 152.41974 27883 ft 457 kts 113°
2026-04-23 03:38 -34.31852 152.45616 28383 ft 460 kts 113°
2026-04-23 03:39 -34.32906 152.49284 28839 ft 463 kts 113°
2026-04-23 03:39 -34.33970 152.52987 29298 ft 466 kts 113°
2026-04-23 03:39 -34.35034 152.56698 29753 ft 469 kts 113°
2026-04-23 03:39 -34.36094 152.60399 30164 ft 472 kts 113°
2026-04-23 03:40 -34.37174 152.64172 30573 ft 474 kts 113°
2026-04-23 03:40 -34.38248 152.67934 31046 ft 473 kts 113°
2026-04-23 03:40 -34.39321 152.71700 31577 ft 471 kts 113°
2026-04-23 03:40 -34.40386 152.75441 32092 ft 469 kts 114°
2026-04-23 03:41 -34.41447 152.79172 32565 ft 468 kts 114°
2026-04-23 03:41 -34.42505 152.82895 33037 ft 467 kts 114°
2026-04-23 03:41 -34.43560 152.86610 33505 ft 466 kts 114°
2026-04-23 03:41 -34.44610 152.90316 33969 ft 464 kts 114°